Flag for France Weather past 2 weeks in Royan, France

Now
41 °F

Clear.


Feels Like: 41 °F
Forecast: 47 / 54 °F
Wind: No wind

Location: Cognac Airport

Current Time: Apr 2, 2015 at 3:42:10 AM

Latest Report: Apr 2, 2015 at 3:00 AM


Visibility: N/A

Pressure: 30.42 "Hg

Humidity: 93%

Dew point: 39 °F

Location of RoyanLocation

Historic Weather in Royan — Graph

°F

Royan temperature yesterday

Maximum temperature yesterday: 57 °F (at 3:30 PM)
Minimum temperature yesterday: 39 °F (at 7:30 AM)
Average temperature yesterday: 48 °F

Past Weeks' High & Low Weather Summary

 TemperatureHumidityPressure
High64 °F (Mar 18, 1:30 PM)100% (Mar 21, 5:30 AM)30.54 "Hg (Mar 21, 5:30 AM)
Low34 °F (Mar 25, 7:00 AM)41% (Mar 25, 2:30 PM)29.77 "Hg (Mar 24, 3:30 AM)
Average49 °F80%30.12 "Hg
* Reported Mar 18 1:00 AM — Apr 2 2:30 AM, Royan, Weather by CustomWeather, © 2015

Note: Actual official high and low records may vary slightly from our data, if they occured in-between our weather recording intervals... More about our weather records

Advertising

Royan weather history for previous 24 hours

 ConditionsComfort  
Time TempWeatherWind HumidityBarometerVisibility
2:30 AM
Thu, Apr 2
41 °FClear.3 mph87%30.45 "HgN/A
2:00 AM41 °FClear.2 mph87%30.45 "HgN/A
1:30 AM43 °FClear.3 mph87%30.45 "HgN/A
1:00 AM43 °FClear.5 mph87%30.48 "HgN/A
12:30 AM43 °FClear.6 mph87%30.48 "HgN/A
12:00 AM45 °FClear.5 mph81%30.48 "HgN/A
11:30 PM
Wed, Apr 1
45 °FClear.5 mph81%30.48 "HgN/A
11:00 PM45 °FClear.6 mph81%30.48 "HgN/A
10:30 PM46 °FClear.5 mph76%30.48 "HgN/A
10:00 PM46 °FClear.5 mph76%30.48 "HgN/A
9:30 PM48 °FClear.5 mph71%30.48 "HgN/A
9:00 PM48 °FClear.6 mph66%30.48 "HgN/A
8:30 PM50 °FClear.9 mph62%30.48 "HgN/A
8:00 PM52 °FClear.14 mph54%30.48 "HgN/A
7:30 PM54 °FClear.13 mph51%30.45 "HgN/A
7:00 PM54 °FScattered clouds.16 mph54%30.48 "HgN/A
6:30 PM55 °FPassing clouds.15 mph51%30.45 "HgN/A
6:00 PM55 °FPartly sunny.15 mph47%30.45 "HgN/A
5:30 PM57 °FBroken clouds.17 mph48%30.45 "HgN/A
5:00 PM55 °FMostly cloudy.15 mph47%30.48 "HgN/A
4:30 PM57 °FPartly sunny.14 mph44%30.48 "HgN/A
4:00 PM55 °FPartly sunny.13 mph47%30.48 "HgN/A
3:30 PM57 °FPartly sunny.12 mph48%30.48 "HgN/A
3:00 PM55 °FPartly sunny.12 mph51%30.48 "HgN/A
2:30 PM55 °FBroken clouds.10 mph47%30.51 "HgN/A
2:00 PM55 °FClear.9 mph47%30.51 "HgN/A
1:30 PM55 °FPartly sunny.8 mph47%30.51 "HgN/A
1:00 PM54 °FBroken clouds.8 mph51%30.51 "HgN/A
12:30 PM54 °FScattered clouds.9 mph51%30.54 "HgN/A
12:00 PM52 °FPartly sunny.13 mph58%30.54 "HgN/A
11:30 AM52 °FPassing clouds.12 mph62%30.54 "HgN/A
11:00 AM50 °FPartly sunny.13 mph62%30.54 "HgN/A
10:30 AM50 °FPartly sunny.14 mph62%30.51 "HgN/A
10:00 AM50 °FClear.10 mph67%30.51 "HgN/A
9:30 AM46 °FClear.3 mph82%30.51 "HgN/A
9:00 AM43 °FClear.3 mph93%30.51 "HgN/A
8:30 AM41 °FClear.3 mph93%30.48 "HgN/A
8:00 AM39 °FClear.3 mph93%30.48 "HgN/A
7:30 AM39 °FClear.5 mph93%30.48 "HgN/A
7:00 AM41 °FClear.5 mph93%30.45 "HgN/A
6:30 AM41 °FClear.6 mph93%30.45 "Hg6 mi
6:00 AM41 °FClear.6 mph93%30.45 "HgN/A
5:30 AM41 °FClear.5 mph93%30.45 "HgN/A
4:30 AM43 °FPassing clouds.6 mph93%30.45 "HgN/A
4:00 AM43 °FPassing clouds.6 mph93%30.45 "HgN/A
3:30 AM43 °FClear.7 mph93%30.42 "HgN/A
3:00 AM43 °FOvercast.6 mph93%30.42 "HgN/A
Weather by CustomWeather, © 2015

See weather overviewHow to use our weather pages